Regional Weather Roundup
Issued by NWS Charleston, WV

Home | Current Version | Previous Version | Text Only | Print | Product List | Glossary Off
Versions: 1 2 3 4 5 6 7 8 9 10 11 12 13 14 15 16 17 18 19 20 21 22 23 24 25 26 27 28 29 30 31 32 33 34 35 36 37 38 39 40 41 42 43 44 45 46 47 48 49

000
ASUS41 KRLX 251910
RWRRLX
West Virginia Regional Weather Roundup
National Weather Service Charleston WV
200 PM EST SUN JAN 25 2015

Note: "fair" indicates few or no clouds below 12,000 feet with no
significant weather and/or obstructions to visibility.

WVZ003-252000-
Northern Panhandle of West Virginia

CITY           SKY/WX    TMP DP  RH WIND       PRES   REMARKS
WHEELING       LGT SNOW  34  32  92 S3        29.76F FOG
$$

WVZ009-252000-
Northwest West Virginia

CITY           SKY/WX    TMP DP  RH WIND       PRES   REMARKS
PARKERSBURG    LGT RAIN  39  34  82 SE3       29.77F
$$

WVZ006-252000-
Western West Virginia

CITY           SKY/WX    TMP DP  RH WIND       PRES   REMARKS
HUNTINGTON     CLOUDY    44  35  70 SE3       29.70F
$$

WVZ015-252000-
West Central West Virginia

CITY           SKY/WX    TMP DP  RH WIND       PRES   REMARKS
CHARLESTON     CLOUDY    46  33  60 SE6       29.73F
$$

WVZ022-031-252000-
North Central West Virginia

CITY           SKY/WX    TMP DP  RH WIND       PRES   REMARKS
CLARKSBURG     LGT RAIN  41  34  76 W7        29.76F
MORGANTOWN     LGT RAIN  37  31  78 CALM      29.77F
$$

WVZ025-035-042-045-252000-
Southern West Virginia

CITY           SKY/WX    TMP DP  RH WIND       PRES   REMARKS
BECKLEY        CLOUDY    43  31  62 S8        29.74F
LOGAN            N/A     45  34  65 S6G13     29.72F
BLUEFIELD      CLOUDY    45  31  58 VRB5      29.74F
LEWISBURG      CLOUDY    41  32  70 SE5       29.77F
$$

WVZ047-252000-
Northern Mountains of West Virginia

CITY           SKY/WX    TMP DP  RH WIND       PRES   REMARKS
ELKINS         CLOUDY    43  33  68 CALM      29.74F
$$

WVZ052-252000-
Eastern Panhandle of West Virginia

CITY           SKY/WX    TMP DP  RH WIND       PRES   REMARKS
MARTINSBURG    CLOUDY    46  30  53 SW5       29.79F
PETERSBURG     CLOUDY    47  31  54 S5        29.77F
$$



USA.gov is the U.S. government's official web portal to all federal, state and local government web resources and services.